ARIANE 3 DEB, 33536

Orbit data source: Space-Track

ARIANE 3 DEB, 33536 is space debris in HEO originally from a launch on Thu, 08 Sep 1988 UTC launched from the French Guiana (FRGUI). Debris objects in space refer to the collection of defunct objects orbiting the Earth. Examples of debris include non-operational satellites, rocket bodies, and fragments generated from explosions, collisions, or faulty payload assembly.

Loading next visibility...
Identifier
33536, 1988-081L
Orbit
HEO
Last TLE update
17 hours ago
Origin
Manufacturer
Unknown
Mission
Spacecraft
Bus & Motor
Unknown
Mass
Unknown
Launch date (UTC)
1988-09-08 (37 years ago)
Launch vehicle
Unknown
Launch site
French Guiana (FRGUI)
Object type
Payload
Rocket body
Debris
Shape & HBR
Unknown
Radar Cross Section
Small (<0.1 m²)

Expand to show TLE details & history

TLE from 17 hours ago
0 ARIANE 3 DEB
1 33536U 88081L   25182.51148190 -.00000111  00000-0  00000-0 0  9996
2 33536   6.9739  22.6686 6931424 300.3658 292.5779  2.15542362165980
Epoch: 2025-07-01T12:16Z
TLE epoch observation values (Epoch: 2025-07-01T12:16:32.036Z)
Latitude
2.81499°
Longitude
75.03645°
Altitude
23,627.679 km
Speed
3.29 km/s
True Right ascension
11h 55m 54s
True Declination
2° 48' 40"
Sunlit
Object was in daylight at epoch
Visualization orbit readout
Latitude
6.85811°
Longitude
19.64395°
Altitude
31,497.197 km
Speed
2.303 km/s
Apparent Right ascension
07h 51m 24s
Apparent Declination
0° 37' 52"
Sunlit
Object is in daylight
Visualization observer readout
Local Sidereal Time
16:31:19
Azimuth
298.766° NW
Elevation
-29.055°
Doppler factor
1
Orbital elements
Apogee altitude
36,491.694 km
Perigee altitude
1,391.401 km
Semi-major axis
25,319.684 km
Eccentricity
0.69314
Inclination
6.9739°
RAAN
22.6686°
Arg. of periapsis
300.3658°
True anomaly
Unknown
Mean anomaly
292.5779°
Eccentric anomaly
Unknown
Mean motion
0.53871 °/min
Orbital period
668.26 mins
BSTAR
0
Loading maneuver chart data...
Loading SW <> Apogee altitude chart data...
Loading historical data...
Loading historical data...
Loading historical data...
Loading historical data...
Loading historical data...
Loading historical data...
Loading historical data...

ARIANE 3 DEB Visibility forecast

Observer location: undefined°, undefined°

Span
Click to sort rows by Start time (UTC) header in descending order
Start Az.
Max El. time (UTC)
Max El. Az.
Max El.
End time (UTC)
End Az.
12 mins2025-07-02 12:59:50.775Z143.154° SSE2025-07-02 13:04:50.775Z132.535° SE10.551°2025-07-02 13:11:50.775Z122.403° SE
423 mins2025-07-02 15:42:50.775Z98.02° ESE2025-07-02 20:47:50.775Z124.889° SE27.096°2025-07-02 22:45:50.775Z119.549° SE
|